TimeCDT,TemperatureF,Dew PointF,Humidity,Sea Level PressureIn,VisibilityMPH,Wind Direction,Wind SpeedMPH,Gust SpeedMPH,PrecipitationIn,Events,Conditions,WindDirDegrees,DateUTC
12:15 AM,53.6,50.0,88,30.18,7.0,ENE,8.1,-,N/A,,Mostly Cloudy,70,2013-03-30 05:15:00
12:35 AM,55.4,50.0,82,30.18,10.0,ENE,6.9,-,N/A,,Overcast,60,2013-03-30 05:35:00
12:55 AM,53.6,48.2,82,30.18,9.0,ENE,6.9,-,N/A,,Mostly Cloudy,60,2013-03-30 05:55:00
1:15 AM,53.6,50.0,88,30.17,8.0,ENE,8.1,-,N/A,,Scattered Clouds,60,2013-03-30 06:15:00
1:35 AM,53.6,48.2,82,30.17,7.0,East,8.1,-,N/A,,Partly Cloudy,80,2013-03-30 06:35:00
1:55 AM,53.6,48.2,82,30.17,6.0,East,4.6,-,N/A,,Scattered Clouds,90,2013-03-30 06:55:00
2:15 AM,53.6,50.0,88,30.16,6.0,East,5.8,-,N/A,,Overcast,80,2013-03-30 07:15:00
2:35 AM,53.6,50.0,88,30.16,5.0,East,6.9,-,N/A,,Overcast,90,2013-03-30 07:35:00
2:55 AM,53.6,50.0,88,30.15,6.0,East,8.1,-,N/A,,Overcast,80,2013-03-30 07:55:00
3:15 AM,53.6,50.0,88,30.12,7.0,East,9.2,-,N/A,,Overcast,80,2013-03-30 08:15:00
3:35 AM,53.6,48.2,82,30.13,7.0,East,8.1,-,N/A,,Overcast,90,2013-03-30 08:35:00
3:55 AM,53.6,50.0,88,30.13,7.0,East,6.9,-,N/A,,Overcast,100,2013-03-30 08:55:00
4:15 AM,53.6,48.2,82,30.12,6.0,East,5.8,-,N/A,,Overcast,100,2013-03-30 09:15:00
4:35 AM,53.6,48.2,82,30.12,7.0,East,5.8,-,N/A,,Overcast,90,2013-03-30 09:35:00
4:55 AM,53.6,48.2,82,30.13,7.0,Calm,Calm,-,N/A,,Overcast,0,2013-03-30 09:55:00
5:15 AM,53.6,48.2,82,30.12,6.0,East,4.6,-,0.01,,Overcast,80,2013-03-30 10:15:00
5:35 AM,53.6,48.2,82,30.12,4.0,East,4.6,-,0.04,,Overcast,100,2013-03-30 10:35:00
5:55 AM,53.6,48.2,82,30.12,4.0,East,4.6,-,0.08,,Overcast,90,2013-03-30 10:55:00
6:15 AM,53.6,48.2,82,30.12,4.0,East,5.8,-,0.11,,Overcast,80,2013-03-30 11:15:00
6:35 AM,53.6,48.2,82,30.12,4.0,NE,4.6,-,0.29,,Mostly Cloudy,50,2013-03-30 11:35:00
6:55 AM,53.6,48.2,82,30.12,3.0,ENE,6.9,-,0.34,,Overcast,70,2013-03-30 11:55:00
7:15 AM,53.6,48.2,82,30.12,3.0,East,6.9,-,0.03,,Mostly Cloudy,90,2013-03-30 12:15:00
7:35 AM,53.6,48.2,82,30.13,2.5,East,4.6,-,0.06,,Mostly Cloudy,80,2013-03-30 12:35:00
7:55 AM,53.6,50.0,88,30.13,2.0,North,6.9,-,0.16,,Overcast,10,2013-03-30 12:55:00
8:15 AM,53.6,48.2,82,30.12,2.5,NE,6.9,-,0.02,,Overcast,40,2013-03-30 13:15:00
8:35 AM,53.6,50.0,88,30.11,2.5,ENE,8.1,-,0.02,,Overcast,60,2013-03-30 13:35:00
8:55 AM,53.6,50.0,88,30.11,3.0,East,6.9,-,0.02,,Overcast,80,2013-03-30 13:55:00
9:15 AM,53.6,50.0,88,30.10,3.0,ENE,9.2,-,N/A,,Mostly Cloudy,70,2013-03-30 14:15:00
9:35 AM,53.6,50.0,88,30.12,3.0,ESE,6.9,-,0.06,,Overcast,110,2013-03-30 14:35:00
9:55 AM,53.6,50.0,88,30.11,3.0,East,5.8,-,0.17,,Overcast,100,2013-03-30 14:55:00
10:15 AM,53.6,50.0,88,30.11,3.0,NE,5.8,-,0.06,,Overcast,50,2013-03-30 15:15:00
10:35 AM,53.6,51.8,94,30.11,3.0,ENE,5.8,-,0.11,,Overcast,60,2013-03-30 15:35:00
10:55 AM,53.6,51.8,94,30.11,3.0,ENE,4.6,-,0.12,,Overcast,70,2013-03-30 15:55:00
11:15 AM,53.6,51.8,94,30.10,4.0,ENE,5.8,-,N/A,,Overcast,70,2013-03-30 16:15:00
11:35 AM,55.4,51.8,88,30.10,4.0,ENE,8.1,-,N/A,,Overcast,70,2013-03-30 16:35:00
11:55 AM,53.6,51.8,94,30.09,5.0,ENE,8.1,-,0.01,,Overcast,70,2013-03-30 16:55:00
12:15 PM,55.4,51.8,88,30.08,5.0,East,6.9,-,N/A,,Overcast,80,2013-03-30 17:15:00
12:35 PM,55.4,51.8,88,30.08,5.0,ESE,5.8,-,0.01,,Overcast,110,2013-03-30 17:35:00
12:55 PM,55.4,51.8,88,30.07,6.0,East,6.9,-,0.03,,Overcast,100,2013-03-30 17:55:00
1:15 PM,55.4,51.8,88,30.07,7.0,East,3.5,-,0.01,,Overcast,100,2013-03-30 18:15:00
1:35 PM,55.4,51.8,88,30.06,6.0,East,5.8,-,0.04,,Overcast,100,2013-03-30 18:35:00
1:55 PM,55.4,51.8,88,30.06,8.0,SSE,8.1,-,0.06,,Overcast,150,2013-03-30 18:55:00
2:15 PM,57.2,53.6,88,30.03,9.0,East,8.1,-,0.05,,Overcast,80,2013-03-30 19:15:00
2:35 PM,57.2,53.6,88,30.02,10.0,ESE,8.1,-,0.05,,Overcast,110,2013-03-30 19:35:00
2:55 PM,57.2,53.6,88,30.00,10.0,SE,10.4,-,0.05,,Overcast,130,2013-03-30 19:55:00
3:15 PM,57.2,53.6,88,29.97,10.0,SE,12.7,-,N/A,,Mostly Cloudy,130,2013-03-30 20:15:00
3:35 PM,59.0,55.4,88,29.98,10.0,SE,10.4,-,N/A,,Mostly Cloudy,130,2013-03-30 20:35:00
3:55 PM,59.0,55.4,88,29.98,10.0,SE,9.2,-,N/A,,Overcast,140,2013-03-30 20:55:00
4:15 PM,60.8,55.4,82,29.98,10.0,SSE,9.2,-,N/A,,Overcast,150,2013-03-30 21:15:00
4:35 PM,60.8,55.4,82,29.97,10.0,SE,8.1,-,N/A,,Overcast,140,2013-03-30 21:35:00
4:55 PM,62.6,55.4,77,29.97,10.0,SSE,9.2,-,N/A,,Overcast,150,2013-03-30 21:55:00
5:15 PM,62.6,55.4,77,29.97,10.0,South,6.9,-,N/A,,Overcast,170,2013-03-30 22:15:00
5:35 PM,62.6,55.4,77,29.97,10.0,SW,10.4,-,N/A,,Overcast,220,2013-03-30 22:35:00
5:55 PM,62.6,55.4,77,29.97,10.0,SSW,5.8,-,N/A,,Overcast,210,2013-03-30 22:55:00
6:15 PM,62.6,55.4,77,29.97,10.0,SW,5.8,-,N/A,,Overcast,230,2013-03-30 23:15:00
6:35 PM,62.6,55.4,77,29.97,10.0,WSW,5.8,-,N/A,,Mostly Cloudy,240,2013-03-30 23:35:00
6:55 PM,62.6,55.4,77,29.97,10.0,SW,4.6,-,N/A,,Mostly Cloudy,230,2013-03-30 23:55:00
7:15 PM,60.8,55.4,82,29.97,10.0,WSW,8.1,-,N/A,,Overcast,250,2013-03-31 00:15:00
7:35 PM,60.8,53.6,77,29.97,10.0,West,4.6,-,N/A,,Overcast,280,2013-03-31 00:35:00
7:55 PM,57.2,53.6,88,29.97,10.0,West,5.8,-,N/A,,Scattered Clouds,270,2013-03-31 00:55:00
8:15 PM,57.2,53.6,88,29.97,10.0,West,4.6,-,N/A,,Clear,260,2013-03-31 01:15:00
8:35 PM,55.4,51.8,88,29.97,10.0,WSW,3.5,-,N/A,,Clear,240,2013-03-31 01:35:00
8:55 PM,57.2,53.6,88,29.97,8.0,Calm,Calm,-,N/A,,Clear,0,2013-03-31 01:55:00
9:15 PM,55.4,51.8,88,29.97,6.0,South,4.6,-,N/A,,Clear,180,2013-03-31 02:15:00
9:35 PM,55.4,51.8,88,29.97,5.0,South,4.6,-,N/A,,Clear,170,2013-03-31 02:35:00
9:55 PM,55.4,51.8,88,29.98,5.0,South,4.6,-,N/A,,Clear,170,2013-03-31 02:55:00
10:15 PM,55.4,51.8,88,29.98,4.0,South,5.8,-,N/A,,Clear,180,2013-03-31 03:15:00
10:35 PM,55.4,51.8,88,29.98,2.5,SSE,3.5,-,N/A,,Partly Cloudy,150,2013-03-31 03:35:00
10:55 PM,55.4,51.8,88,29.98,2.5,SE,4.6,-,N/A,,Scattered Clouds,130,2013-03-31 03:55:00
11:15 PM,55.4,51.8,88,29.97,2.5,ESE,5.8,-,N/A,,Mostly Cloudy,120,2013-03-31 04:15:00
11:35 PM,55.4,51.8,88,29.97,3.0,SE,6.9,-,N/A,,Scattered Clouds,130,2013-03-31 04:35:00
11:55 PM,55.4,51.8,88,29.97,3.0,ESE,5.8,-,N/A,,Partly Cloudy,120,2013-03-31 04:55:00